GFSMW_sfc_dewp_000.txt.gz
Dewpoint
28 33 38 40 39 43 40 39 38 41 40 41 41 41 42 43 44 43 43 45 43 43 43 42 41 42 42 41 41 41 41 41 42 40 37 38 37 39 44 53 58 59 58
28 32 36 41 42 41 41 39 39 40 40 39 40 41 42 41 41 42 44 43 45 43 41 43 40 41 41 41 43 42 40 41 41 40 38 34 32 39 41 42 51 55 58
29 31 38 41 43 43 43 40 39 39 41 40 38 40 41 41 39 39 41 43 44 45 44 43 42 41 41 41 42 41 40 39 40 39 39 34 32 34 34 38 37 43 51
32 33 38 39 43 43 45 43 42 39 39 43 37 40 36 33 34 37 37 37 44 44 42 42 43 42 42 41 42 40 43 41 38 40 39 39 38 34 33 36 36 36 37
35 34 34 36 40 42 46 45 43 42 41 42 42 39 40 39 39 40 40 39 40 40 39 40 41 42 43 42 42 42 42 42 41 39 39 39 39 38 36 34 34 36 37
35 34 36 37 37 44 45 47 45 41 42 42 43 43 40 41 41 41 39 39 39 40 41 38 39 40 39 39 39 38 38 39 39 39 38 37 36 35 34 33 33 33 34
36 37 36 36 39 41 44 46 44 41 41 44 44 42 43 42 41 41 39 37 36 35 36 36 36 36 35 36 36 35 36 36 35 34 34 34 34 34 32 30 28 28 30
37 36 38 40 40 42 43 43 39 39 40 42 43 44 43 41 41 39 37 35 34 34 34 33 34 34 34 35 35 34 34 34 35 34 35 34 34 33 31 30 30 29 29
37 36 38 39 41 43 43 44 42 41 41 42 44 43 42 40 38 37 36 35 34 29 34 34 34 34 35 35 34 34 33 33 34 34 35 34 34 36 35 33 31 29 28
37 37 38 40 41 41 42 44 45 40 39 39 39 37 37 37 35 35 33 32 32 32 33 32 32 32 32 32 32 32 32 33 33 32 33 33 33 33 33 32 33 34 32
37 37 39 39 40 41 40 39 38 36 37 37 38 37 34 35 32 31 30 30 32 31 31 30 30 29 28 29 29 29 30 29 29 30 30 30 30 30 31 32 32 32 32
34 35 36 37 39 40 41 40 37 36 35 34 35 34 32 31 31 30 31 33 31 32 31 30 28 27 26 27 27 27 26 26 26 27 27 28 26 28 29 30 30 30 30
33 35 35 38 39 40 41 41 34 35 33 30 32 31 31 30 30 32 32 31 31 30 29 27 28 27 27 26 26 25 25 25 25 26 26 26 27 27 28 28 28 29 28
34 35 36 38 39 41 41 37 32 35 31 29 29 31 30 32 32 32 32 32 31 30 29 28 27 27 25 23 23 22 23 24 24 27 28 28 28 28 28 28 28 28 30
36 39 39 38 39 41 41 35 32 33 31 29 28 32 36 35 33 32 32 31 31 28 28 25 25 26 24 21 23 25 25 25 25 26 26 26 27 29 29 27 28 28 28
39 40 38 38 40 40 40 32 31 31 30 30 37 39 36 33 32 32 31 31 29 27 25 25 25 25 21 27 30 30 26 25 25 25 25 25 26 26 28 29 29 29 27
40 40 39 40 40 39 36 34 34 39 40 40 37 36 36 30 30 29 28 28 26 26 25 24 24 24 24 29 30 29 25 25 25 25 24 24 23 26 26 27 29 29 30
41 40 41 40 39 37 37 40 41 38 37 36 36 35 30 27 27 28 26 25 24 24 23 24 24 24 24 28 28 28 26 26 26 26 26 26 26 27 27 26 28 29 30
40 40 38 39 38 38 40 40 40 39 38 33 27 25 26 26 27 25 23 24 23 22 23 23 24 24 24 27 27 27 27 28 28 27 27 27 26 27 29 29 30 29 28
39 36 38 38 38 39 39 36 35 33 27 26 25 24 26 25 22 22 22 22 22 20 23 23 26 27 25 27 28 29 29 29 28 29 30 31 31 31 30 29 29 28 28
34 38 37 37 37 37 35 30 25 25 23 23 24 24 23 21 21 22 21 20 20 24 25 25 26 25 26 26 28 28 28 29 28 28 27 27 28 29 30 32 29 29 28
37 36 37 36 35 33 33 23 17 19 21 23 24 23 22 21 19 21 19 20 21 23 24 23 24 24 25 26 25 27 29 29 28 27 28 28 30 30 31 31 30 30 30
36 36 36 35 35 30 20 20 23 20 23 23 23 23 23 22 20 18 19 19 20 23 23 24 22 22 24 25 25 25 27 29 27 28 28 30 30 29 29 30 29 28 28
36 36 35 31 28 25 21 21 23 25 22 23 25 24 24 22 20 19 20 18 22 23 23 21 21 22 23 23 24 26 28 30 28 29 28 27 28 28 29 29 30 30 30
35 35 32 30 25 26 26 23 25 25 24 26 25 25 25 22 20 20 20 22 24 24 22 23 25 24 22 23 28 29 29 29 29 28 28 27 26 25 25 27 31 29 28
35 31 30 24 23 25 25 26 27 27 27 25 25 26 24 23 22 19 20 24 25 25 25 25 27 26 26 28 29 30 31 30 29 27 25 23 23 25 25 25 28 29 27

GFSMW_sfc_dewp_003.txt.gz
Dewpoint
28 34 35 33 34 34 32 32 33 35 36 36 36 35 37 38 40 39 43 43 43 40 39 40 42 42 40 40 38 40 38 37 40 38 38 37 37 37 38 44 52 56 59
28 31 34 35 33 33 33 32 33 34 35 36 36 36 36 36 37 39 41 43 42 41 40 40 37 38 38 36 38 40 38 39 39 38 37 34 35 36 38 38 44 46 52
27 29 31 34 36 35 35 35 34 34 37 35 35 36 38 37 34 35 40 40 40 42 40 40 40 39 39 38 40 38 36 37 39 38 38 35 34 36 37 37 39 40 45
29 30 29 31 36 37 38 36 36 37 37 38 35 34 33 32 33 34 35 38 41 42 42 41 41 40 40 40 41 41 41 40 38 40 39 40 39 37 35 37 38 39 38
31 30 31 31 31 38 40 40 38 38 39 39 38 35 34 38 36 38 36 38 41 41 40 40 41 41 41 39 38 38 38 41 41 40 40 39 40 40 38 35 37 39 40
31 33 34 34 35 39 40 41 40 39 40 40 39 39 36 35 38 37 37 39 38 38 36 35 36 36 35 35 35 34 33 34 36 38 38 38 37 35 36 34 34 35 36
32 35 32 34 37 38 39 40 41 41 41 41 41 40 39 36 36 38 37 36 34 35 32 33 33 33 34 34 34 34 33 34 34 35 34 36 35 34 32 30 28 27 27
33 34 35 38 39 39 39 40 40 41 40 41 41 42 41 40 37 38 37 34 33 34 32 33 33 32 32 32 32 31 33 34 34 34 35 36 36 37 35 32 31 28 28
35 35 37 40 40 40 40 40 39 40 40 38 39 39 40 37 35 32 32 34 33 31 32 32 31 32 34 34 33 35 34 34 34 35 35 35 34 36 35 35 34 32 29
35 37 37 40 40 40 39 39 38 36 35 35 33 34 32 30 32 33 31 30 31 30 31 32 34 35 33 32 32 32 32 33 34 33 34 34 35 36 36 36 36 36 33
34 35 36 39 40 40 40 39 39 38 31 33 33 32 31 29 28 28 29 29 30 28 31 32 33 32 30 30 30 30 31 31 31 31 30 30 31 31 31 32 32 31 31
34 35 37 39 40 40 41 40 40 34 30 34 31 29 28 26 26 27 29 31 30 31 30 31 30 30 30 30 30 29 28 28 27 29 29 29 27 28 29 30 29 29 30
36 39 40 40 39 40 41 40 39 31 30 29 28 26 26 25 27 29 28 28 29 30 29 29 31 31 30 29 29 27 27 26 27 27 27 27 27 27 28 29 30 31 30
39 40 40 40 39 39 40 40 34 33 32 28 27 27 27 27 29 29 29 29 30 29 30 30 31 31 28 25 25 24 25 25 25 27 28 28 27 27 27 26 27 28 29
39 40 39 40 38 40 40 36 33 34 33 29 29 33 34 33 31 31 29 30 30 30 30 29 27 27 26 22 24 25 26 25 25 26 26 26 28 29 29 26 25 25 25
39 39 40 40 40 40 37 36 36 38 39 38 39 39 37 35 33 30 31 31 29 28 26 25 26 25 22 28 32 29 27 26 25 25 25 25 26 26 28 28 29 27 25
40 40 40 40 40 40 36 36 38 39 40 40 38 39 39 38 37 32 28 27 25 24 23 23 23 24 25 30 29 29 24 24 24 24 24 23 23 26 24 26 27 27 29
40 40 39 38 38 37 38 39 40 41 39 38 37 38 39 36 27 27 26 23 22 21 21 22 23 24 23 29 29 28 26 25 25 25 25 25 25 25 25 25 25 24 25
40 39 39 38 38 37 38 39 39 40 40 37 35 28 27 25 25 23 21 21 20 19 21 22 23 24 25 28 28 27 26 25 25 26 27 27 27 28 29 27 28 27 27
40 37 38 37 37 37 38 37 34 36 25 24 24 25 25 23 21 20 19 19 19 19 22 23 26 27 24 26 26 25 26 27 26 26 27 28 27 29 31 30 29 27 27
36 36 36 37 37 35 31 27 16 19 23 25 25 24 23 21 20 20 20 18 19 22 19 18 21 23 24 24 25 25 25 27 26 25 26 26 28 28 29 30 30 28 29
36 36 36 35 34 31 27 13 16 20 24 24 24 23 23 21 20 18 18 19 20 19 17 14 18 21 20 25 25 25 25 26 26 26 27 26 28 28 29 30 31 31 30
35 36 36 34 32 23 20 22 23 24 25 25 25 24 23 23 19 18 19 20 20 18 17 21 19 20 23 24 25 24 25 27 28 28 29 30 31 31 29 30 30 29 29
35 35 33 29 29 23 23 23 27 27 24 25 25 25 24 22 20 20 21 20 17 16 20 19 21 22 23 22 23 26 28 29 28 28 27 27 27 27 27 26 28 28 29
34 35 31 30 26 26 26 26 26 26 26 26 25 25 24 22 21 21 20 22 21 19 22 22 24 23 21 23 27 28 28 29 28 26 24 22 22 22 24 24 25 28 25
35 34 32 24 24 25 24 27 27 26 26 26 25 23 21 21 22 21 21 23 25 25 24 24 27 25 25 27 28 28 30 29 28 25 21 20 20 20 21 22 23 25 27

GFSMW_sfc_dewp_006.txt.gz
Dewpoint
34 34 33 34 33 33 32 34 33 33 35 36 36 35 35 38 39 41 47 47 45 43 40 41 43 43 40 41 39 38 38 37 38 37 37 37 37 36 36 41 43 48 53
31 33 32 32 32 32 31 32 32 33 35 35 35 35 35 36 37 38 40 46 45 43 40 40 41 41 41 39 39 39 38 38 39 37 36 34 34 36 37 38 39 41 44
28 31 34 32 32 32 33 32 32 33 35 36 35 36 37 37 37 36 38 41 43 43 41 40 41 39 39 38 37 38 37 36 39 38 37 35 33 36 37 38 39 39 41
30 29 30 33 35 34 35 34 35 34 35 37 35 34 32 32 33 34 35 39 42 41 42 41 41 39 40 40 40 40 40 39 37 39 40 39 39 36 31 36 38 40 40
30 29 30 30 32 35 37 38 37 37 38 39 39 37 35 35 35 36 35 36 39 41 42 42 42 41 40 37 34 34 32 36 35 35 36 36 37 37 34 29 29 33 39
31 32 33 34 36 38 38 40 39 39 40 40 40 39 37 36 36 37 37 39 38 38 39 38 37 36 36 35 34 33 31 32 32 32 32 35 32 30 31 29 28 28 29
32 32 32 36 38 38 39 39 39 40 41 41 41 41 41 40 38 36 38 39 36 35 34 34 35 34 34 35 35 36 36 34 32 30 32 32 33 34 33 32 31 31 31
33 34 37 38 39 39 39 38 39 38 38 39 40 41 41 42 41 39 39 37 36 35 34 34 35 36 37 37 37 38 38 37 33 31 31 32 33 34 32 31 32 30 28
36 37 39 39 39 39 39 39 39 38 39 38 37 35 35 36 33 32 34 34 33 32 34 37 39 41 42 41 36 35 34 34 34 33 33 33 34 36 35 35 32 30 28
35 36 38 39 40 39 40 41 40 39 39 34 34 31 30 31 32 31 30 32 34 37 39 41 41 41 38 36 34 34 32 32 33 32 33 33 33 34 35 35 34 33 31
35 38 39 40 40 40 41 41 40 40 32 31 33 31 28 29 28 29 30 30 32 34 36 36 35 35 35 34 32 30 31 31 31 31 31 30 31 31 32 33 32 32 32
37 39 39 40 40 40 40 40 41 33 32 33 32 31 28 27 28 29 30 31 30 31 30 31 31 31 31 31 30 30 29 28 27 28 28 27 26 27 29 30 30 30 30
39 40 40 39 40 40 40 40 39 33 33 31 30 27 26 26 28 28 29 29 29 29 29 28 30 31 31 30 29 28 27 27 26 26 27 27 28 28 28 28 28 29 28
39 40 39 39 41 39 40 41 34 35 36 33 28 27 26 27 29 29 29 29 29 29 28 30 31 32 30 28 27 26 26 26 25 26 27 27 27 26 26 25 25 25 26
39 39 39 40 40 40 41 37 36 37 36 30 30 32 33 32 31 30 30 32 31 30 30 30 28 27 26 22 28 27 26 25 25 26 26 25 27 28 29 26 25 25 23
39 38 40 41 40 40 39 37 37 38 39 38 39 38 37 37 37 37 37 34 31 29 25 24 24 24 22 30 30 29 26 25 24 24 23 23 25 25 27 28 28 27 24
38 38 40 41 39 39 37 37 38 40 39 40 39 40 40 39 37 36 34 28 25 22 21 21 21 23 24 28 29 29 24 25 25 24 24 23 23 25 24 26 28 28 28
38 39 40 39 38 38 37 38 39 39 39 39 38 37 37 35 30 26 24 21 21 19 19 20 22 23 23 28 27 28 25 25 25 25 25 25 25 25 25 25 25 25 25
40 41 39 38 37 36 37 37 36 37 31 25 25 26 26 25 24 21 20 20 19 19 19 21 23 25 25 27 26 25 23 24 25 27 27 27 26 27 28 28 28 26 27
39 36 36 36 36 36 34 23 21 23 24 26 25 25 25 23 21 20 20 19 18 18 23 24 24 24 23 25 24 24 25 25 24 24 25 26 26 27 28 26 27 26 26
36 36 36 36 36 34 26 19 21 22 24 25 26 24 24 22 21 19 18 18 20 21 17 16 19 21 23 22 25 25 25 25 25 24 24 25 27 28 29 29 28 27 27
35 35 36 35 34 20 18 18 20 22 25 25 25 25 24 23 20 19 19 20 21 19 17 13 15 19 19 23 25 24 25 25 26 25 26 27 29 29 30 30 29 29 29
34 35 35 33 30 20 21 23 25 25 26 25 25 25 25 22 20 19 20 20 20 17 16 20 17 20 22 23 25 24 25 27 28 28 27 27 25 25 27 27 28 27 27
33 34 35 30 29 23 23 25 26 26 25 25 25 26 24 23 21 21 21 20 16 15 21 19 20 22 21 21 22 25 27 28 29 25 24 23 23 22 22 24 25 26 27
33 35 36 35 28 25 25 25 26 25 25 25 25 25 25 21 22 22 21 21 21 19 19 18 24 20 19 21 27 26 27 29 27 25 21 20 20 20 21 21 23 25 26
36 35 35 26 25 25 25 26 27 25 25 25 25 23 22 20 21 21 21 24 24 23 23 24 23 22 24 27 26 27 28 27 26 24 19 18 18 19 20 19 20 22 23

GFSMW_sfc_dewp_009.txt.gz
Dewpoint
33 33 34 33 34 35 35 31 30 32 36 36 36 36 36 38 39 40 43 48 48 46 44 43 45 43 41 40 40 38 37 37 37 36 36 36 37 36 36 38 40 42 43
31 32 33 32 31 32 33 33 33 33 34 34 35 35 34 35 36 39 40 46 47 46 44 41 42 43 41 40 40 39 38 38 39 35 36 32 34 34 37 38 39 40 42
31 32 32 31 31 31 32 32 32 32 34 36 35 35 36 36 36 36 37 39 45 47 45 41 40 41 42 40 39 39 38 36 39 38 36 33 31 35 36 34 37 38 39
29 30 32 32 33 33 34 34 34 34 35 36 36 35 33 32 34 35 36 36 41 42 45 43 40 40 41 39 38 39 39 38 35 35 39 37 37 29 27 31 30 31 34
29 29 29 30 32 34 36 37 39 39 39 40 39 39 38 38 38 38 37 37 38 42 43 43 41 40 42 40 37 35 33 34 33 32 32 32 34 35 33 23 23 29 30
30 32 33 35 37 39 39 39 39 39 40 40 41 40 39 39 39 39 39 39 38 39 41 41 40 37 36 36 35 34 34 33 34 35 35 34 30 29 29 29 26 28 30
30 32 35 37 38 38 38 38 39 39 39 39 39 39 40 41 40 40 40 39 36 35 35 36 35 35 36 37 39 39 40 40 39 38 37 36 34 33 32 31 30 28 27
34 36 38 38 38 39 39 39 39 40 40 40 37 37 37 39 41 41 39 38 35 34 35 37 39 41 41 42 42 42 41 40 39 38 35 32 33 33 33 31 29 28 28
37 38 39 39 39 39 39 40 40 40 40 38 35 35 33 34 35 33 34 34 34 35 38 40 41 41 41 41 41 40 39 38 36 35 34 33 33 34 34 34 34 31 27
37 38 39 39 39 40 40 41 40 40 39 32 33 33 32 31 31 32 32 32 35 38 40 41 40 41 41 40 39 36 34 32 33 32 32 32 33 33 34 34 33 33 31
37 38 39 40 40 40 40 40 40 41 35 32 33 34 32 29 28 30 31 32 35 35 35 34 36 37 36 35 33 31 31 30 30 30 30 29 30 30 30 32 32 31 31
38 39 40 40 40 40 40 40 40 38 34 35 34 33 32 28 27 29 30 31 31 31 31 31 31 32 31 31 30 29 29 28 27 27 28 27 25 27 29 30 29 29 29
38 40 40 40 40 41 41 40 41 35 35 36 36 33 30 26 28 29 30 31 29 29 29 29 29 30 31 30 29 29 28 27 27 27 27 27 28 27 28 28 28 28 26
39 40 40 40 40 41 40 40 38 37 37 37 35 30 26 26 28 29 30 32 32 30 30 30 31 31 28 26 26 26 26 26 25 26 26 25 25 25 25 25 25 25 25
39 39 40 39 40 41 40 40 37 38 38 39 32 30 31 32 31 35 37 36 34 33 31 28 26 25 23 21 26 26 26 25 25 25 25 24 25 26 26 25 25 26 25
40 40 38 39 41 40 39 38 37 38 39 38 38 38 40 40 40 39 38 36 35 29 25 23 23 23 21 28 30 29 27 26 24 23 23 23 25 25 26 26 27 27 24
40 38 38 40 41 39 38 37 37 38 38 38 38 39 39 40 39 37 36 28 24 22 21 21 22 23 24 27 28 28 25 25 24 24 24 24 23 25 24 25 26 27 28
37 37 40 40 38 38 37 36 37 37 37 31 27 29 29 27 26 24 22 21 20 19 19 20 23 24 24 26 26 26 24 24 24 25 25 25 25 25 25 24 25 25 25
37 40 38 37 37 36 35 28 24 24 25 25 26 27 28 27 23 21 20 20 18 19 20 23 24 23 22 24 24 24 21 22 23 25 25 25 25 26 27 26 26 26 25
38 36 36 36 35 36 23 25 24 23 23 26 25 25 24 22 21 21 19 19 19 20 23 23 22 22 21 23 25 24 24 24 23 23 23 25 25 26 27 27 27 25 24
36 36 35 35 35 32 24 21 21 23 24 25 25 25 25 23 22 20 19 19 21 21 17 15 18 20 22 22 25 25 25 24 24 24 24 26 27 28 29 29 28 28 26
34 34 35 35 34 22 21 19 21 23 25 25 25 25 25 22 20 20 20 20 20 19 16 12 15 19 18 23 24 24 24 25 25 25 27 27 26 26 25 25 27 27 29
34 34 34 35 32 23 21 22 25 24 25 24 24 25 25 23 21 21 21 19 19 17 16 20 19 19 22 21 23 23 25 27 27 28 25 24 24 24 23 24 26 25 25
32 33 34 34 34 28 24 24 26 25 24 24 24 25 24 23 21 21 21 20 18 16 20 19 19 21 19 19 21 26 26 26 28 25 25 22 22 21 22 23 24 25 25
32 34 34 33 32 29 24 25 25 25 24 25 25 24 24 23 23 21 21 22 21 18 19 17 21 19 18 20 26 26 25 27 27 24 21 20 18 18 19 19 20 21 22
33 35 33 32 26 25 25 25 27 26 25 25 25 22 21 21 22 20 21 23 23 24 23 23 21 22 23 25 25 26 26 27 24 23 20 18 17 16 18 17 17 18 19